Regional Weather Roundup
Issued by NWS

Home | Current Version | Previous Version | Graphics & Text | Print | Product List | Glossary On
Versions: 1 2 3 4 5 6 7 8 9 10 11 12 13 14 15 16 17 18 19 20 21 22 23 24 25 26 27 28 29 30 31 32 33 34 35 36 37 38 39 40 41 42 43 44 45 46 47 48 49 50
000
ASUS43 KLOT 062212
RWRIL

ILLINOIS REGIONAL WEATHER ROUNDUP
NATIONAL WEATHER SERVICE CHICAGO/ROMEOVILLE IL
500 PM CDT WED MAY 06 2015

NOTE: "FAIR" INDICATES FEW OR NO CLOUDS BELOW 12,000 FEET WITH NO
SIGNIFICANT WEATHER AND/OR OBSTRUCTIONS TO VISIBILITY.

* THESE STATIONS ARE NOT UNDER NWS QUALITY CONTROL. THEY ALSO MAY NOT
  REPORT WEATHER SUCH AS PRECIPITATION OR FOG.

ILZ001-002-007-009-015-016-024-062300-
NORTHWEST ILLINOIS

CITY           SKY/WX    TMP DP  RH WIND       PRES   REMARKS
MOLINE         PTSUNNY   82  53  36 S16G22    29.98F HX  81
STERLING*      MOSUNNY   82  54  36 S6        30.02S HX  81
SAVANNA*       MOSUNNY   84  47  27 S17       30.00F HX  82
$$

ILZ003-004-008-010-011-017-018-062300-
NORTH CENTRAL ILLINOIS

CITY           SKY/WX    TMP DP  RH WIND       PRES   REMARKS
ROCKFORD       MOSUNNY   81  54  39 S16       30.05F HX  81
FREEPORT*      MOSUNNY   78  56  46 S16       30.05S
ROCHELLE*      MOSUNNY   80  56  44 S15       30.05S HX  80
DE KALB*       MOSUNNY   79  56  45 S14G21    30.07S
PERU*          PTSUNNY   82  51  34 S14       30.04F HX  80
$$

ILZ005-006-012>014-019>023-062300-
NORTHEAST ILLINOIS

CITY           SKY/WX    TMP DP  RH WIND       PRES   REMARKS
CHICAGO-OHARE  PTSUNNY   69  56  62 E10       30.08F
CHICAGO-MIDWAY PTSUNNY   71  58  63 NE10      30.08F HAZE
AURORA         MOSUNNY   81  52  36 S12       30.05F HX  80
LANSING*       MOSUNNY   71  57  60 NE8       30.08F
JOLIET*        PTSUNNY   83  54  37 S7        30.06F HX  82
WAUKEGAN       MOSUNNY   58  54  86 E6        30.10F FOG
DUPAGE AIRPORT PTSUNNY   77  60  55 E9        30.06F
KANKAKEE*      PTSUNNY   83  56  39 S12       30.07S HX  83
WHEELING       SUNNY     61  53  75 NE9       30.11F HAZE
MORRIS*        MOSUNNY   82  52  35 S10       30.04F HX  81
ROMEOVILLE*    MOSUNNY   81  52  36 S9        30.06F HX  80
NORTHERLY ISL    N/A     54  51  90 S8          N/A
$$

LMZ740>746-062300-
SOUTHERN LAKE MICHIGAN

STATION/POSITION SKY/WX   TEMP    WIND        PRES    VSBY  WAVE
                          AIR SEA DIR/SP/G                  HT/PER
                          (F)     (DEG/KT/KT) (MB)    (MI)  (FT/S)
HARRISON CRIB              46     340/  7/  8   N/A
BURNHAM HARBOR             53     350/  5/ 10   N/A
CALUMET HARBOR             52     350/  6/  9   N/A
BURNS HARBOR               57      70/ 11/ 12 1019.6F
MICHIGAN CITY              56      20/  9/  9   N/A
MICHIGAN CITY 6N           54 54   80/  8/ 10   N/A           1
ST. JOSEPH                 56 52   50/ 10/ 10   N/A           1
$$

ILZ025>027-034>036-040-047-049-050-058-095>099-062300-
WEST-CENTRAL ILLINOIS

CITY           SKY/WX    TMP DP  RH WIND       PRES   REMARKS
QUINCY         CLOUDY    74  60  61 S3        30.00F
GALESBURG*     MOSUNNY   80  52  37 S15       30.00F HX  80
MACOMB*        PTSUNNY   82  53  37 S10       30.02S HX  81
JACKSONVILLE*  SUNNY     86  49  28 S15       30.01F HX  83
PITTSFIELD*    MOSUNNY   83  50  32 S10       30.01F HX  81
$$

ILZ028>032-037-038-041>044-048-051>054-059>061-062300-
CENTRAL ILLINOIS

CITY           SKY/WX    TMP DP  RH WIND       PRES   REMARKS
PONTIAC        PTSUNNY   84  51  31 S15       30.05F HX  82
BLOOMINGTON    PTSUNNY   83  54  36 S17       30.06F HX  82
DECATUR        MOSUNNY   84  50  30 S18       30.05F HX  82
PEORIA         PTSUNNY   83  52  34 S13       30.02F HX  82
LACON*         PTSUNNY   82  51  33 S13       30.02S HX  81
LINCOLN*       PTSUNNY   85  51  30 S17G32    30.00F HX  83
SPRINGFIELD    MOSUNNY   86  52  30 S17G24    30.02F HX  84
TAYLORVILLE    MOSUNNY   84  50  30 S16       30.04F HX  82
$$

ILZ033-039-045-046-055>057-062-063-062300-
EAST-CENTRAL ILLINOIS

CITY           SKY/WX    TMP DP  RH WIND       PRES   REMARKS
CHAMPAIGN      PTSUNNY   87  47  24 S13       30.06F HX  84
DANVILLE*      PTSUNNY   85  49  29 S10       30.05F HX  83
RANTOUL*       PTSUNNY   86  50  28 S16       30.06F HX  84
MATTOON        PTSUNNY   83  51  33 S14G23    30.06F HX  81
PARIS*         PTSUNNY   84  50  30 S10       30.08F HX  82
$$

ILZ079-100>102-062300-
SOUTHWEST ILLINOIS

CITY           SKY/WX    TMP DP  RH WIND       PRES   REMARKS
ALTON          MOSUNNY   82  54  36 S17       30.03F HX  81
BELLEVILLE     SUNNY     84  55  37 S9        30.02F HX  83
CAHOKIA*       MOSUNNY   85  53  33 SE14G21   30.02F HX  83
SPARTA*        MOSUNNY   82  54  37 S14       30.06F HX  81
$$

ILZ064>066-069>071-074>076-080>082-084>086-088>090-092>094-062300-
SOUTH-CENTRAL ILLINOIS

CITY           SKY/WX    TMP DP  RH WIND       PRES   REMARKS
CARBONDALE     SUNNY     84  54  35 S13       30.05F HX  83
CAIRO*         SUNNY     85  54  35 SE13      30.06F HX  83
EFFINGHAM*     MOSUNNY   83  45  25 S8        30.08F HX  81
MARION         MOSUNNY   82  59  44 S12       30.07F HX  82
MT. VERNON     MOSUNNY  N/A N/A N/A S12       30.07F
CENTRALIA*     MOSUNNY   87  51  29 S12       30.06F HX  85
SALEM*         MOSUNNY   86  50  28 S8        30.07F HX  84
METROPOLIS*    SUNNY     85  56  37 SE6       30.06F HX  84
$$

ILZ067-068-072-073-078-083-087-091-062300-
SOUTHEAST ILLINOIS

CITY           SKY/WX    TMP DP  RH WIND       PRES   REMARKS
LAWRENCEVILLE  SUNNY     85  53  33 S3        30.07F HX  83
FLORA*         MOSUNNY   85  51  31 S13G20    30.07F HX  83
FAIRFIELD*     SUNNY     85  54  34 SE9G16    30.06F HX  83
HARRISBURG*    MOSUNNY   84  54  34 S13       30.08F HX  83
ROBINSON*      MOSUNNY   86  50  28 S12       30.08F HX  84
CARMI*         MOSUNNY   82  48  30 SE8       30.07S HX  80
$$

ABBREVIATIONS USED IN REMARKS
   TC - TEMPERATURE IN CELSIUS
  WCI - WIND CHILL INDEX
   HX - HEAT INDEX
  VSB - VISIBILITY
$$




USA.gov is the U.S. government's official web portal to all federal, state and local government web resources and services.